TimeAKST,TemperatureF,Dew PointF,Humidity,Sea Level PressureIn,VisibilityMPH,Wind Direction,Wind SpeedMPH,Gust SpeedMPH,PrecipitationIn,Events,Conditions,WindDirDegrees,DateUTC
12:16 AM,-7.6,-20.2,54,29.50,10.0,North,5.8,-,N/A,,Clear,10,2012-12-27 09:16:00
12:36 AM,-9.4,-14.8,77,29.51,10.0,NNE,3.5,-,N/A,,Clear,30,2012-12-27 09:36:00
12:56 AM,-7.6,-16.6,65,29.51,5.0,North,4.6,-,N/A,,Clear,350,2012-12-27 09:56:00
1:16 AM,-5.8,-14.8,65,29.51,8.0,North,4.6,-,N/A,,Clear,350,2012-12-27 10:16:00
1:36 AM,-7.6,-18.4,59,29.52,9.0,Calm,Calm,-,N/A,,Clear,0,2012-12-27 10:36:00
1:56 AM,-5.8,-11.2,77,29.52,10.0,North,3.5,-,N/A,,Clear,10,2012-12-27 10:56:00
2:16 AM,-5.8,-20.2,50,29.52,10.0,Calm,Calm,-,N/A,,Clear,0,2012-12-27 11:16:00
2:36 AM,-9.4,-20.2,59,29.52,10.0,North,3.5,-,N/A,,Clear,360,2012-12-27 11:36:00
2:56 AM,-11.2,-25.6,49,29.51,10.0,North,3.5,-,N/A,,Clear,10,2012-12-27 11:56:00
3:16 AM,-7.6,-9999,N/A,29.50,10.0,North,4.6,-,N/A,,Clear,360,2012-12-27 12:16:00
3:36 AM,-7.6,-20.2,54,29.50,9.0,NNE,3.5,-,N/A,,Clear,20,2012-12-27 12:36:00
3:56 AM,-7.6,-13.0,77,29.50,10.0,NNE,8.1,-,N/A,,Clear,30,2012-12-27 12:56:00
4:16 AM,-7.6,-14.8,71,29.50,10.0,NNE,9.2,-,N/A,,Clear,30,2012-12-27 13:16:00
4:36 AM,-7.6,-16.6,65,29.50,10.0,NNE,5.8,-,N/A,,Clear,20,2012-12-27 13:36:00
4:56 AM,-4.0,-9.4,78,29.50,10.0,North,8.1,-,N/A,,Clear,10,2012-12-27 13:56:00
5:16 AM,-2.2,-9.4,71,29.50,10.0,North,6.9,-,N/A,,Clear,10,2012-12-27 14:16:00
5:36 AM,-2.2,-11.2,66,29.50,9.0,NNE,5.8,-,N/A,,Clear,20,2012-12-27 14:36:00
5:56 AM,-5.8,-18.4,55,29.49,10.0,NNE,9.2,-,N/A,,Clear,20,2012-12-27 14:56:00
6:16 AM,-4.0,-9.4,78,29.50,10.0,North,5.8,-,N/A,,Clear,10,2012-12-27 15:16:00
6:36 AM,-4.0,-13.0,65,29.50,10.0,North,5.8,-,N/A,,Clear,360,2012-12-27 15:36:00
6:56 AM,-5.8,-16.6,60,29.50,10.0,North,5.8,-,N/A,,Clear,10,2012-12-27 15:56:00
7:16 AM,-5.8,-16.6,60,29.50,10.0,North,8.1,-,N/A,,Clear,10,2012-12-27 16:16:00
7:36 AM,-7.6,-20.2,54,29.50,10.0,NNE,10.4,-,N/A,,Clear,20,2012-12-27 16:36:00
7:56 AM,-7.6,-14.8,71,29.51,10.0,North,8.1,-,N/A,,Clear,10,2012-12-27 16:56:00
8:16 AM,-7.6,-16.6,65,29.51,10.0,North,6.9,-,N/A,,Clear,360,2012-12-27 17:16:00
8:36 AM,-7.6,-14.8,71,29.51,10.0,North,9.2,-,N/A,,Clear,360,2012-12-27 17:36:00
8:56 AM,-7.6,-14.8,71,29.52,10.0,North,8.1,-,N/A,,Clear,360,2012-12-27 17:56:00
9:16 AM,-7.6,-16.6,65,29.53,10.0,North,11.5,-,N/A,,Clear,10,2012-12-27 18:16:00
9:36 AM,-7.6,-14.8,71,29.53,10.0,North,8.1,-,N/A,,Clear,360,2012-12-27 18:36:00
10:16 AM,-5.8,-14.8,65,29.53,10.0,North,6.9,-,N/A,,Clear,350,2012-12-27 19:16:00
10:36 AM,-9.4,-20.2,59,29.53,10.0,North,8.1,-,N/A,,Clear,10,2012-12-27 19:36:00
10:56 AM,-7.6,-16.6,65,29.53,10.0,North,4.6,-,N/A,,Clear,10,2012-12-27 19:56:00
11:16 AM,-7.6,-16.6,65,29.53,10.0,NNE,8.1,-,N/A,,Clear,20,2012-12-27 20:16:00
11:36 AM,-9.4,-18.4,65,29.53,10.0,NNE,10.4,-,N/A,,Clear,20,2012-12-27 20:36:00
11:56 AM,-7.6,-14.8,71,29.53,10.0,NNE,11.5,-,N/A,,Clear,30,2012-12-27 20:56:00
12:16 PM,-7.6,-18.4,59,29.53,10.0,NNE,9.2,-,N/A,,Clear,20,2012-12-27 21:16:00
12:36 PM,-7.6,-14.8,71,29.53,10.0,North,9.2,-,N/A,,Clear,10,2012-12-27 21:36:00
12:56 PM,-7.6,-14.8,71,29.53,10.0,NNE,10.4,-,N/A,,Clear,20,2012-12-27 21:56:00
1:16 PM,-7.6,-16.6,65,29.53,8.0,NNE,11.5,-,N/A,,Clear,20,2012-12-27 22:16:00
1:36 PM,-5.8,-14.8,65,29.53,10.0,North,10.4,-,N/A,,Clear,10,2012-12-27 22:36:00
1:56 PM,-5.8,-14.8,65,29.53,10.0,North,8.1,-,N/A,,Clear,10,2012-12-27 22:56:00
2:16 PM,-7.6,-14.8,71,29.53,10.0,North,6.9,-,N/A,,Clear,360,2012-12-27 23:16:00
2:36 PM,-7.6,-16.6,65,29.54,8.0,North,8.1,-,N/A,,Clear,360,2012-12-27 23:36:00
3:16 PM,-7.6,-16.6,65,29.54,9.0,North,9.2,-,N/A,,Clear,10,2012-12-28 00:16:00
3:36 PM,-9.4,-16.6,71,29.54,10.0,North,10.4,16.1,N/A,,Mostly Cloudy,10,2012-12-28 00:36:00
3:56 PM,-9.4,-18.4,65,29.54,9.0,North,12.7,-,N/A,,Overcast,10,2012-12-28 00:56:00
4:16 PM,-9.4,-20.2,59,29.53,3.0,North,11.5,-,N/A,,Overcast,10,2012-12-28 01:16:00
4:36 PM,-11.2,-20.2,64,29.53,1.0,North,11.5,-,N/A,,Overcast,10,2012-12-28 01:36:00
4:56 PM,-9.4,-18.4,65,29.53,1.5,NNE,11.5,-,N/A,,Overcast,20,2012-12-28 01:56:00
5:16 PM,-11.2,-20.2,64,29.53,3.0,North,9.2,-,N/A,,Overcast,10,2012-12-28 02:16:00
5:36 PM,-11.2,-20.2,64,29.53,1.2,NNE,11.5,-,N/A,,Overcast,20,2012-12-28 02:36:00
5:56 PM,-11.2,-20.2,64,29.53,1.5,NNE,11.5,-,N/A,,Overcast,20,2012-12-28 02:56:00
6:16 PM,-13.0,-23.8,59,29.53,1.2,North,10.4,-,N/A,,Overcast,10,2012-12-28 03:16:00
6:36 PM,-11.2,-20.2,64,29.53,1.5,North,9.2,-,N/A,,Overcast,360,2012-12-28 03:36:00
6:56 PM,-11.2,-18.4,70,29.54,1.8,NNE,10.4,-,N/A,,Overcast,20,2012-12-28 03:56:00
7:16 PM,-13.0,-23.8,59,29.54,2.5,NNE,10.4,-,N/A,,Overcast,20,2012-12-28 04:16:00
7:36 PM,-11.2,-20.2,64,29.54,1.5,NNE,13.8,-,N/A,,Overcast,20,2012-12-28 04:36:00
7:56 PM,-13.0,-22.0,64,29.54,1.8,NNE,12.7,-,N/A,,Overcast,20,2012-12-28 04:56:00
8:16 PM,-14.8,-23.8,64,29.54,2.0,NNE,12.7,-,N/A,,Overcast,20,2012-12-28 05:16:00
8:36 PM,-13.0,-22.0,64,29.54,9.0,NNE,11.5,-,N/A,,Overcast,20,2012-12-28 05:36:00
8:56 PM,-14.8,-23.8,64,29.54,10.0,NNE,12.7,-,N/A,,Overcast,20,2012-12-28 05:56:00
9:16 PM,-14.8,-25.6,58,29.55,9.0,NNE,13.8,-,N/A,,Overcast,20,2012-12-28 06:16:00
9:36 PM,-14.8,-23.8,64,29.56,8.0,NNE,12.7,-,N/A,,Overcast,20,2012-12-28 06:36:00
9:56 PM,-14.8,-23.8,64,29.55,5.0,North,12.7,-,N/A,,Overcast,10,2012-12-28 06:56:00
10:16 PM,-14.8,-23.8,64,29.56,2.5,North,12.7,-,N/A,,Overcast,10,2012-12-28 07:16:00
10:36 PM,-14.8,-22.0,70,29.56,2.5,NNE,12.7,-,N/A,,Overcast,20,2012-12-28 07:36:00
10:56 PM,-14.8,-23.8,64,29.57,3.0,NNE,10.4,-,N/A,,Overcast,30,2012-12-28 07:56:00
11:16 PM,-14.8,-25.6,58,29.57,9.0,NNE,11.5,-,N/A,,Overcast,20,2012-12-28 08:16:00
11:36 PM,-14.8,-25.6,58,29.57,10.0,NNE,12.7,-,N/A,,Overcast,20,2012-12-28 08:36:00
11:56 PM,-16.6,-25.6,64,29.57,10.0,NNE,10.4,-,N/A,,Overcast,20,2012-12-28 08:56:00